軌道要素
Epoch 2024 Oct. 17.0 TT = JDT 2460600.5
T 2024 Nov. 26.89422 TT Veres
q 0.8240215 (2000.0) P Q
z +0.0070503 Peri. 238.13556 +0.53535320 -0.11666515
+/-0.0092084 Node 112.43919 -0.01542633 +0.98889890
e 0.9941904 Incl. 64.83118 -0.84448741 -0.09202285
From 62 observations 2024 Dec. 25-31, mean residual 0".7.
|